This is the latest recevied weather packets stored in our database for station/object N0QV. If no packets are shown the sender has not sent any weather packets the latest 10 day(s).
| Time | Temp. | Humidity | Pressure | Rain* | Wind** | Luminosity | Snow |
|---|---|---|---|---|---|---|---|
| 1788131875 | 28.33° C | 73% | 1008.1 hPa | 0 mm | - | 43 W/m² | - |
| 1788131575 | 28.89° C | 73% | 1007.7 hPa | 0 mm | - | 59 W/m² | - |
| 1788131269 | 28.89° C | 72% | 1008.1 hPa | 0 mm | - | 75 W/m² | - |
| 1788130965 | 28.89° C | 71% | 1008 hPa | 0 mm | - | 113 W/m² | - |
| 1788130668 | 28.89° C | 71% | 1007.9 hPa | 0 mm | - | 181 W/m² | - |
| 1788130359 | 28.89° C | 71% | 1007.8 hPa | 0 mm | - | 210 W/m² | - |
| 1788130058 | 28.89° C | 71% | 1008.1 hPa | 0 mm | - | 189 W/m² | - |
| 1788129754 | 28.89° C | 71% | 1008.1 hPa | 0 mm | - | 123 W/m² | - |
| 1788129450 | 28.89° C | 70% | 1007.9 hPa | 0 mm | - | 120 W/m² | - |
| 1788129146 | 28.89° C | 70% | 1007.7 hPa | 0 mm | - | 133 W/m² | - |
| 1788128840 | 28.89° C | 69% | 1007.9 hPa | 0 mm | - | 131 W/m² | - |
| 1788128536 | 28.89° C | 69% | 1007.8 hPa | 0 mm | - | 128 W/m² | - |
| 1788128231 | 29.44° C | 68% | 1007.8 hPa | 0 mm | - | 78 W/m² | - |
| 1788127928 | 30.56° C | 66% | 1007.5 hPa | 0 mm | - | 71 W/m² | - |
| 1788127623 | 30.56° C | 64% | 1007.5 hPa | 0 mm | - | 214 W/m² | - |
| 1788127337 | 30.56° C | 64% | 1007.4 hPa | 0 mm | - | 302 W/m² | - |
| 1788127021 | 31.11° C | 63% | 1007.7 hPa | 0 mm | - | 321 W/m² | - |
| 1788126715 | 30.56° C | 63% | 1007.5 hPa | 0 mm | - | 365 W/m² | - |
| 1788126412 | 30.56° C | 65% | 1007.6 hPa | 0 mm | - | 400 W/m² | - |
| 1788126111 | 30.56° C | 65% | 1007.7 hPa | 0 mm | - | 270 W/m² | - |
| 1788125810 | 30.56° C | 64% | 1008 hPa | 0 mm | - | 425 W/m² | - |
| 1788125506 | 30° C | 64% | 1008 hPa | 0 mm | - | 232 W/m² | - |
| 1788125202 | 30.56° C | 64% | 1007.9 hPa | 0 mm | - | 225 W/m² | - |
| 1788124896 | 31.11° C | 63% | 1007.8 hPa | 0 mm | - | 444 W/m² | - |
| 1788124592 | 31.67° C | 60% | 1007.6 hPa | 0 mm | - | 460 W/m² | - |
* Rain latest hour (hover to see other rain measurements)
** Current wind speed in m/s (hover to see current wind gust speed)